[[{"header":{"parameterUnit":"m.s-1","parameterCategory":1,"la1":30.2991,"la2":30.254,"lo1":-89.0895,"lo2":-89.0444,"dy":0.0017,"dx":0.0017,"nx":28,"ny":28,"refTime":"2025-06-01T21:00:00:Z","depth":0,"parameterNumber":2,"parameterNumberName":"U-component_of_WINDS"},"data":[0,0,0,0,0,0,0,0,0,0,0,0,0,0,0,0,0,0,0,0,0,0,0,0,0,0,0,0,0,0,0,0,0,0,0,0,0,0,0,0,0,0,0,0,0,0,0,0,0,0,0,0,0,0,0,0,0,0,-4.4166,-4.4167,0,-4.4256,-4.4257,-4.4258,-4.4206,-4.4203,-4.4201,-4.4198,-4.4287,-4.4291,-4.4296,0,0,0,0,0,0,0,0,0,0,0,0,0,-4.3944,-4.3949,-4.4165,-4.4167,-4.4168,-4.4255,-4.4257,-4.4258,-4.4206,-4.4203,-4.42,-4.4197,-4.4285,-4.4291,-4.4296,0,0,0,0,0,0,0,0,0,0,0,0,0,-4.4038,-4.395,-4.4165,-4.4153,-4.4152,-4.4255,-4.4257,-4.4258,-4.4207,-4.4203,-4.4199,-4.4196,-4.4283,-4.429,-4.4297,-4.4416,0,0,-4.4319,-4.4322,0,0,0,0,0,0,0,0,-4.4033,-4.4046,-4.4153,-4.4154,-4.4154,-4.4216,-4.4211,-4.4311,-4.4208,-4.4186,-4.4198,-4.4194,-4.4266,-4.4274,-4.4299,-4.4421,-4.4424,-4.4319,-4.4323,-4.4327,-4.4329,0,0,0,0,0,0,0,-4.4026,-4.4042,-4.4201,-4.4155,-4.4155,-4.4141,-4.415,-4.423,-4.4246,-4.4188,-4.4184,-4.4196,-4.4265,-4.4292,-4.4301,-4.4426,-4.4319,-4.4325,-4.433,-4.4332,-4.4647,-4.465,0,0,0,0,0,0,-4.4021,-4.4037,-4.4198,-4.4204,-4.4083,-4.4148,-4.4158,-4.4199,-4.4245,-4.4248,-4.4199,-4.4193,-4.4282,-4.4293,-4.4304,-4.4444,-4.4326,-4.4333,-4.4337,-4.4642,-4.4647,-4.4652,0,0,0,0,0,0,-4.4017,-4.4036,-4.4194,-4.4119,-4.4138,-4.4156,-4.4203,-4.4203,-4.423,-4.4253,-4.4256,-4.4224,-4.428,-4.4294,-4.4388,-4.4446,-4.4336,-4.4343,-4.4638,-4.4644,-4.465,-4.4726,0,0,0,0,0,0,-4.401,-4.4035,-4.4081,-4.4121,-4.4143,-4.4279,-4.4206,-4.4208,-4.4243,-4.4236,-4.4278,-4.4281,-4.4278,-4.4378,-4.4395,-4.4454,-4.4348,-4.4632,-4.464,-4.4648,-4.4718,-4.4734,-4.4748,0,0,0,0,0,-4.4003,-4.4099,-4.4084,-4.4104,-4.4201,-4.4283,-4.4295,-4.429,-4.4248,-4.4294,-4.4309,-4.4279,-4.4438,-4.4388,-4.4407,-4.4469,-4.4629,-4.4638,-4.4647,-4.4712,-4.4731,-4.4747,0,0,0,0,0,0,-4.4064,-4.4104,-4.4087,-4.42,-4.4238,-4.4274,-4.4331,-4.4311,-4.4362,-4.4353,-4.4345,-4.4354,-4.4452,-4.4471,-4.4414,-4.4585,-4.4526,-4.454,-4.4569,-4.4587,-4.4602,-4.4593,-4.4354,0,0,0,0,0,-4.4091,-4.4155,-4.4186,-4.4282,-4.4302,-4.4314,-4.4349,-4.4343,-4.4381,-4.4397,-4.4419,-4.4456,-4.4514,-4.4553,-4.4608,-4.4722,-4.4729,-4.4774,-4.4788,-4.48,-4.4811,-4.4869,-4.4889,-4.4682,-4.4682,-4.4682,0,0,-4.4147,-4.4176,-4.4217,-4.4295,-4.4324,-4.4388,-4.4328,-4.4399,-4.4446,-4.4407,-4.4497,-4.4515,-4.4556,-4.4661,-4.4708,-4.4679,-4.487,-4.4812,-4.4821,-4.4825,-4.4881,-4.49,-4.4918,-4.4689,-4.4687,-4.4686,0,0,-4.428,-4.4311,-4.4392,-4.4423,-4.4468,-4.4475,-4.4495,-4.4534,-4.4544,-4.4635,-4.4606,-4.4662,-4.4763,-4.4793,-4.4821,-4.4967,-4.494,-4.4985,-4.5059,-4.5117,-4.5133,-4.5147,-4.5196,-4.5213,-4.4996,-4.4997,-4.4997,0,-4.4342,-4.444,-4.4436,-4.4509,-4.4543,-4.4514,-4.4595,-4.4624,-4.4685,-4.4708,-4.4676,-4.4801,-4.4827,-4.4936,-4.4972,-4.4997,-4.5017,-4.4978,-4.5132,-4.5146,-4.5159,-4.5205,-4.5223,-4.5001,-4.5001,-4.5,-4.5,0,-4.4513,-4.4581,-4.4641,-4.4701,-4.4742,-4.4819,-4.4825,-4.4868,-4.4858,-4.4868,-4.496,-4.4991,-4.505,-4.5076,-4.5068,-4.5184,-4.5164,-4.5133,-4.5072,-4.5184,-4.5226,-4.5244,-4.5008,-4.5007,-4.5005,-4.5004,0,0,-4.4684,-4.4742,-4.4764,-4.4789,-4.4837,-4.4889,-4.4964,-4.5023,-4.5058,-4.5101,-4.5162,-4.5248,-4.5219,-4.5251,-4.5246,-4.5297,-4.5406,-4.5258,-4.5259,-4.5281,-4.5532,-4.5553,-4.5573,-4.5391,-4.5394,-4.5397,-4.5527,0,-4.4817,-4.4949,-4.4948,-4.5069,-4.513,-4.5103,-4.5168,-4.5204,-4.5216,-4.5268,-4.5281,-4.5341,-4.5299,-4.5318,-4.5368,-4.5382,-4.5455,-4.5373,-4.5443,-4.5446,-4.543,-4.5596,-4.5619,-4.5741,-4.5544,-4.5547,-4.5549,0,-4.499,-4.5039,-4.5166,-4.5204,-4.5229,-4.5288,-4.5341,-4.5393,-4.5432,-4.5437,-4.5473,-4.546,-4.5534,-4.5476,-4.5576,-4.552,-4.5549,-4.5561,-4.5566,-4.5568,-4.5501,-4.56,-4.578,-4.5796,-4.5576,-4.5574,-4.5572,0,-4.5097,-4.5196,-4.5284,-4.5307,-4.5354,-4.5395,-4.5417,-4.5453,-4.5488,-4.5535,-4.5557,-4.5612,-4.5641,-4.5683,-4.5684,-4.5641,-4.5784,-4.5726,-4.5787,-4.5787,-4.5815,-4.5813,-4.5998,-4.5842,-4.5841,-4.5841,-4.5841,0,-4.5244,-4.5321,-4.5332,-4.5386,-4.5472,-4.547,-4.5555,-4.5572,-4.5605,-4.566,-4.5641,-4.5693,-4.5693,-4.5746,-4.5748,-4.5829,-4.5843,-4.5847,-4.5846,-4.5846,-4.5845,-4.5862,-4.5852,-4.5846,-4.5845,-4.5844,-4.5843,0,-4.5377,-4.5388,-4.5481,-4.5518,-4.553,-4.5591,-4.5622,-4.5672,-4.5683,-4.5753,-4.5769,-4.5786,-4.5846,-4.5853,-4.5924,-4.5925,-4.6022,-4.6014,-4.6008,-4.6005,-4.6065,-4.6057,-4.6264,-4.629,-4.612,-4.6122,-4.6123,0,-4.5467,-4.5526,-4.557,-4.5606,-4.563,-4.5689,-4.5724,-4.5725,-4.5763,-4.5812,-4.5856,-4.5915,-4.5962,-4.6061,-4.6078,-4.6132,-4.6122,-4.6191,-4.6129,-4.6128,-4.6118,-4.6113,-4.6117,-4.6201,-4.6203,-4.6204,-4.6206,0,-4.5625,-4.5628,-4.5681,-4.5736,-4.5779,-4.5822,-4.5862,-4.5893,-4.5898,-4.5942,-4.6004,-4.6041,-4.6113,-4.6171,-4.6224,-4.6244,-4.6225,-4.6226,-4.6242,-4.6241,-4.6234,-4.6234,-4.6036,-4.622,-4.6218,-4.6217,-4.6217,-4.6216,-4.5737,-4.5787,-4.5826,-4.5885,-4.5915,-4.5953,-4.6002,-4.6019,-4.6071,-4.613,-4.6128,-4.6196,-4.6233,-4.6302,-4.6326,-4.6378,-4.6355,-4.638,-4.6385,-4.639,-4.6394,-4.6229,-4.6389,-4.6388,-4.6388,-4.6388,-4.6387,0,-4.5891,-4.5914,-4.5969,-4.6026,-4.6072,-4.6053,-4.6096,-4.6135,-4.6195,-4.6232,-4.6279,-4.6349,-4.6406,-4.6428,-4.6483,-4.652,-4.6512,-4.6534,-4.6529,-4.6533,-4.6414,-4.6392,-4.6539,-4.6539,-4.6539,-4.6539,-4.6539,-4.6539,-4.5976,-4.6059,-4.6066,-4.6164,-4.6186,-4.6253,-4.6279,-4.6313,-4.6342,-4.6422,-4.6469,-4.6484,-4.6514,-4.6571,-4.6621,-4.6626,-4.6645,-4.6669,-4.667,-4.6557,-4.6542,-4.6527,-4.6507,-4.6675,-4.6675,-4.6784,-4.6785,-4.6786]},{"header":{"parameterUnit":"m.s-1","parameterCategory":1,"la1":30.2991,"la2":30.254,"lo1":-89.0895,"lo2":-89.0444,"dy":0.0017,"dx":0.0017,"nx":28,"ny":28,"refTime":"2025-06-01T21:00:00:Z","depth":0,"parameterNumber":3,"parameterNumberName":"V-component_of_WINDS"},"data":[0,0,0,0,0,0,0,0,0,0,0,0,0,0,0,0,0,0,0,0,0,0,0,0,0,0,0,0,0,0,0,0,0,0,0,0,0,0,0,0,0,0,0,0,0,0,0,0,0,0,0,0,0,0,0,0,0,0,2.6954,2.6953,0,2.6919,2.6919,2.6919,2.6814,2.6811,2.6809,2.6807,2.6774,2.6776,2.6777,0,0,0,0,0,0,0,0,0,0,0,0,0,2.6931,2.6932,2.6954,2.6953,2.6953,2.692,2.6919,2.6919,2.6814,2.6811,2.6808,2.6806,2.6774,2.6775,2.6777,0,0,0,0,0,0,0,0,0,0,0,0,0,2.6923,2.6932,2.6954,2.6896,2.6891,2.692,2.6919,2.6918,2.6815,2.6811,2.6808,2.6804,2.6773,2.6775,2.6777,2.6859,0,0,2.6783,2.6784,0,0,0,0,0,0,0,0,2.6924,2.6924,2.6905,2.69,2.6894,2.6867,2.6899,2.6899,2.6815,2.6844,2.6807,2.6803,2.6808,2.6807,2.6808,2.6858,2.6856,2.6783,2.6785,2.6785,2.6786,0,0,0,0,0,0,0,2.6925,2.6925,2.694,2.6905,2.6898,2.6873,2.6868,2.6899,2.6846,2.6841,2.6833,2.683,2.6804,2.6807,2.6807,2.6856,2.6783,2.6785,2.6786,2.6787,2.6971,2.6974,0,0,0,0,0,0,2.6933,2.6926,2.6941,2.6939,2.6901,2.6877,2.6871,2.6879,2.6845,2.6837,2.6834,2.6826,2.6805,2.6805,2.6805,2.6898,2.6785,2.6787,2.6788,2.6967,2.6971,2.6975,0,0,0,0,0,0,2.6933,2.6935,2.6943,2.6931,2.693,2.6881,2.6891,2.6881,2.6882,2.684,2.683,2.6845,2.6802,2.6803,2.6846,2.6895,2.6788,2.679,2.6963,2.6968,2.6973,2.7085,0,0,0,0,0,0,2.6933,2.6936,2.6966,2.6932,2.6931,2.6984,2.6894,2.6882,2.6886,2.6875,2.6848,2.684,2.68,2.6844,2.6848,2.6896,2.6791,2.6958,2.6965,2.6972,2.7077,2.7094,2.7108,0,0,0,0,0,2.6932,2.6999,2.6968,2.697,2.6967,2.6986,2.6986,2.6937,2.689,2.692,2.6893,2.6841,2.689,2.6849,2.6853,2.6903,2.6954,2.6963,2.6971,2.707,2.709,2.7108,0,0,0,0,0,0,2.704,2.6993,2.6958,2.7016,2.7006,2.6969,2.7005,2.6961,2.6964,2.6954,2.6894,2.6889,2.6941,2.6927,2.6882,2.698,2.6914,2.6923,2.6987,2.7007,2.7022,2.7024,2.6793,0,0,0,0,0,2.7071,2.709,2.7048,2.7104,2.71,2.7054,2.7061,2.7024,2.7011,2.7007,2.6983,2.6973,2.6986,2.6996,2.7006,2.7075,2.7067,2.7111,2.7127,2.714,2.7148,2.7183,2.7202,2.7003,2.7003,2.7002,0,0,2.7134,2.7111,2.7127,2.7125,2.7112,2.7134,2.7051,2.7077,2.7093,2.7011,2.705,2.7033,2.7018,2.7075,2.7099,2.7064,2.7202,2.7151,2.7162,2.7162,2.7194,2.7213,2.723,2.7008,2.7007,2.7006,0,0,2.7259,2.7245,2.7288,2.7278,2.726,2.7229,2.724,2.721,2.7195,2.7233,2.7172,2.7191,2.7215,2.7207,2.7206,2.7331,2.7283,2.7336,2.7417,2.7452,2.7468,2.7482,2.7525,2.7541,2.7345,2.7345,2.7345,0,2.734,2.7369,2.7316,2.7346,2.7348,2.7275,2.7319,2.7312,2.7299,2.7302,2.7264,2.7292,2.7278,2.7331,2.7362,2.7364,2.7374,2.7337,2.747,2.7483,2.7495,2.7535,2.7552,2.7351,2.7351,2.735,2.7349,0,2.7469,2.749,2.7528,2.7516,2.7522,2.756,2.7513,2.7526,2.7489,2.7463,2.7503,2.7484,2.7488,2.7498,2.7464,2.7547,2.7526,2.7481,2.7412,2.7521,2.7558,2.7573,2.7361,2.7358,2.7356,2.7355,0,0,2.7659,2.7618,2.7633,2.7627,2.7603,2.7619,2.7654,2.7657,2.7669,2.7664,2.7691,2.7714,2.7671,2.767,2.7634,2.7665,2.7764,2.7615,2.7614,2.7642,2.7854,2.7888,2.7906,2.7734,2.7736,2.7739,2.7855,0,2.7776,2.7831,2.7785,2.7849,2.7869,2.7801,2.7831,2.782,2.7797,2.7811,2.7786,2.7802,2.7745,2.7744,2.7772,2.7746,2.7806,2.7738,2.7758,2.7759,2.7761,2.7926,2.7961,2.8071,2.7869,2.7872,2.7873,0,2.792,2.792,2.7985,2.7958,2.7964,2.7992,2.7991,2.8005,2.7993,2.7974,2.7974,2.793,2.7963,2.7898,2.7942,2.7897,2.7903,2.7893,2.7896,2.7894,2.7821,2.7927,2.8106,2.8122,2.7896,2.7894,2.7893,0,2.8049,2.8067,2.8108,2.8105,2.8074,2.8095,2.8084,2.8067,2.8072,2.8073,2.8076,2.8081,2.8084,2.8089,2.8048,2.8005,2.8098,2.8029,2.8082,2.8084,2.8103,2.8102,2.8284,2.8111,2.8111,2.8111,2.811,0,2.8184,2.8226,2.8165,2.8191,2.8237,2.8185,2.8232,2.8214,2.82,2.8221,2.8164,2.8185,2.8131,2.8147,2.8116,2.8157,2.8159,2.8144,2.8135,2.8148,2.815,2.815,2.814,2.8115,2.8114,2.8113,2.8112,0,2.8335,2.8296,2.8337,2.8304,2.8298,2.8333,2.8305,2.8328,2.8302,2.8329,2.8333,2.8292,2.8308,2.8268,2.8279,2.8257,2.8316,2.8296,2.832,2.8313,2.8368,2.8362,2.8554,2.8576,2.8392,2.8393,2.8395,0,2.8422,2.8453,2.8425,2.8434,2.8425,2.8442,2.8447,2.8398,2.8406,2.8394,2.8418,2.8429,2.8435,2.8464,2.8436,2.8444,2.8422,2.8488,2.8422,2.8434,2.8421,2.8418,2.8421,2.8501,2.8503,2.8505,2.8507,0,2.8581,2.856,2.8569,2.8571,2.8579,2.8579,2.8575,2.8586,2.8534,2.8546,2.8561,2.8566,2.8576,2.8588,2.859,2.8579,2.8534,2.8528,2.854,2.8553,2.8565,2.8558,2.8355,2.8523,2.8522,2.852,2.852,2.8519,2.8701,2.8725,2.8709,2.872,2.8712,2.871,2.873,2.8706,2.8717,2.8721,2.8693,2.8714,2.8702,2.8699,2.8693,2.8709,2.8679,2.8698,2.8702,2.8706,2.8715,2.8565,2.871,2.8709,2.8709,2.8708,2.8708,0,2.8854,2.8841,2.8852,2.8848,2.8858,2.8816,2.881,2.8821,2.884,2.8832,2.8839,2.8857,2.8868,2.8842,2.8849,2.8868,2.8848,2.8871,2.8868,2.8866,2.8742,2.873,2.8887,2.8887,2.8887,2.8887,2.8887,2.8887,2.8935,2.8974,2.8952,2.8986,2.8972,2.8992,2.8992,2.899,2.8983,2.9005,2.9014,2.8996,2.8981,2.8987,2.8996,2.8988,2.8993,2.9023,2.9008,2.8893,2.8875,2.8858,2.8846,2.9025,2.9026,2.9131,2.9132,2.9132]}]]